GSAT0201 (GALILEO 5) (40128 NORAD) Tracking and Keplerian Element Data

This shows tracking and keplerian element data for the satellite.

Feedback or suggestion? Click here.




ElementValue
Catalog40128
NameGSAT0201 (GALILEO 5)
Epoch Orbit4632
Epoch Day269.63832394
Epoch Year2021
RAAN342.7945
Inclination50.43
Eccentricity0.1641281
Argument of Perigee114.8995
Mean Anonmoly263.0316
Mean Motion1.85519197
Decay Rate-1.06E-06
L11 40128U 14050A 21269.63832394 -.00000106 00000-0 00000-0 0 9991
L22 40128 50.4300 342.7945 1641281 114.8995 263.0316 1.85519197 46325

Live tracking and technical data element details for GSAT0201 (GALILEO 5) (NORAD 40128). GSAT0201 (GALILEO 5) can be tracked NOW for your location showing map with azimuth and elevation plus other details from your city location.

Track the satellite on the map from your city or location and see movement details for azimuth, elevation, latitude, longitude, range, height, and movement on the map or in text.







IsCatalogInMostPopularTable: catalog: 40128, numindb: 552
Update: records affected: 1



GetName: 40128 GSAT0201 (GALILEO 5)

Hit Count: updated at: Tue, 28 Sep 2021 17:01:46 GMT